カタログに戻る

STARLINK-36790

運用中通信VLEO
NORAD 68095·PAYLOAD·🇺🇸 United States

打ち上げ Mar 4, 2026 から Vandenberg Space Force Base

Loading…

次のパス (今後24時間)

TLE

最新Source: CelesTrak SupGP

元期: Sep 15, 2026, 02:58 UTC

1 68095C 26042AC  26258.12409722  .00048241  00000+0  14254-2 0  2586
2 68095  53.1600  14.6751 0001199  94.3331  16.9996 15.34363450    17

AllMySatでSTARLINK-36790をリアルタイム追跡

Download on the App Store